STARLINK-36938, 68124

Orbit data source: Space-Track

STARLINK-36938, 68124 is a payload satellite owned by SpaceX/Seattle (US) in SSO that was launched on Sun, 08 Mar 2026 UTC via an FALCON 9 launch vehicle from the Air Force Western Test Range (AFWTR). Payload-class satellites include a variety of spacecraft equipped with specific instruments for various scientific and technological missions. These include communications satellites like Starlink; space stations such as the ISS; scientific satellites like the Hubble; Earth observation satellites from companies like Planet Labs, Umbra, and HawkEye 360; GPS; miniature CubeSats for education and research; and military/defense satellites.

Loading next visibility...
Identifier
68124, 2026-044Z
Orbit
SSO
Country
Flag of USUS
Related business
Manufacturer
SpaceX/Seattle
Mission
Operational spacecraft
Bus & Motor
STARLINK V2MO, Unknown motor
Mass
575 kg wet, ~530 kg dry
Launch date (UTC)
2026-03-08 (1 week ago)
Launch vehicle
FALCON 9
Launch site
Air Force Western Test Range (AFWTR)
Object type
Payload
Rocket body
Debris
Shape & HBR
Unknown
Radar Cross Section
RCS unknown

Expand to show TLE details & history
Last TLE update: 11 hours ago

TLE from 11 hours ago
0 STARLINK-36938
1 68124U 26044Z   26073.50002315 -.01878535  11192-2 -28590-2 0  9992
2 68124  97.2807  33.7478 0001498  93.7267  93.9501 16.04631080  2170
Epoch: 2026-03-14T12:00Z
TLE epoch observation values (Epoch: 2026-03-14T12:00:02.000Z)
Latitude
-7.80873°
Longitude
-139.37907°
Altitude
266.231 km
Speed
7.747 km/s
True Right ascension
14h 10m 59s
True Declination
-7° 45' 33"
Sunlit
Object was in full shadow at epoch
Visualization orbit readout
Latitude
Unknown
Longitude
Unknown
Altitude
Unknown
Speed
Unknown
Apparent Right ascension
Unknown
Apparent Declination
Unknown
Sunlit
N/A
Visualization observer readout
Local Sidereal Time
03:21:08
Azimuth
Unknown
Elevation
Unknown
Doppler factor
Unknown
Orbital elements
Apogee altitude
259.455 km
Perigee altitude
257.467 km
Semi-major axis
6,636.598 km
Eccentricity
0.00015
Inclination
97.2807°
RAAN
33.7478°
Arg. of periapsis
93.7267°
True anomaly
93.96722°
Mean anomaly
93.9501°
Eccentric anomaly
93.95866°
Mean motion
4.01444 °/min
Orbital period
89.68 mins
BSTAR
-0.002859
Loading maneuver chart data...
Computing Atmospheric mass density...
Loading historical data...
Loading historical data...
Loading historical data...
Loading historical data...
Loading historical data...
Loading historical data...
Loading historical data...

Documentation

Showing up to 5 results
|